Time,TemperatureF,DewpointF,PressureIn,WindDirection,WindDirectionDegrees,WindSpeedMPH,WindSpeedGustMPH,Humidity,HourlyPrecipIn,Conditions,Clouds,dailyrainin,SoftwareType,DateUTC
2013-01-29 00:02:00,45.0,-99.9,30.31,WNW,289,13.0,17.0,-999,-99.99,,,-99.99,,2013-01-29 08:02:00,
2013-01-29 00:11:00,45.0,-99.9,30.31,WNW,293,12.0,16.0,-999,-99.99,,,-99.99,,2013-01-29 08:11:00,
2013-01-29 00:21:00,45.0,-99.9,30.31,WNW,284,15.0,19.0,-999,-99.99,,,-99.99,,2013-01-29 08:21:00,
2013-01-29 00:32:00,45.0,-99.9,30.32,WNW,286,13.0,18.0,-999,-99.99,,,-99.99,,2013-01-29 08:32:00,
2013-01-29 00:42:00,45.0,-99.9,30.32,WNW,301,14.0,19.0,-999,-99.99,,,-99.99,,2013-01-29 08:42:00,
2013-01-29 00:52:00,46.0,-99.9,30.32,WNW,301,11.0,18.0,-999,-99.99,,,-99.99,,2013-01-29 08:52:00,
2013-01-29 01:02:00,45.0,-99.9,30.32,WNW,298,11.0,18.0,-999,-99.99,,,-99.99,,2013-01-29 09:02:00,
2013-01-29 01:11:00,45.0,-99.9,30.32,WNW,298,11.0,16.0,-999,-99.99,,,-99.99,,2013-01-29 09:11:00,
2013-01-29 01:22:00,45.0,-99.9,30.33,WNW,301,14.0,21.0,-999,-99.99,,,-99.99,,2013-01-29 09:22:00,
2013-01-29 01:32:00,45.0,-99.9,30.33,WNW,297,15.0,19.0,-999,-99.99,,,-99.99,,2013-01-29 09:32:00,
2013-01-29 01:42:00,45.0,-99.9,30.33,WNW,296,11.0,18.0,-999,-99.99,,,-99.99,,2013-01-29 09:42:00,
2013-01-29 01:52:00,45.0,-99.9,30.33,WNW,290,17.0,22.0,-999,-99.99,,,-99.99,,2013-01-29 09:52:00,
2013-01-29 02:02:00,45.0,-99.9,30.32,WNW,293,11.0,18.0,-999,-99.99,,,-99.99,,2013-01-29 10:02:00,
2013-01-29 02:11:00,45.0,-99.9,30.33,WNW,295,10.0,16.0,-999,-99.99,,,-99.99,,2013-01-29 10:11:00,
2013-01-29 02:22:00,45.0,-99.9,30.34,WNW,301,15.0,19.0,-999,-99.99,,,-99.99,,2013-01-29 10:22:00,
2013-01-29 02:32:00,45.0,-99.9,30.34,WNW,298,13.0,18.0,-999,-99.99,,,-99.99,,2013-01-29 10:32:00,
2013-01-29 02:42:00,45.0,-99.9,30.34,WNW,295,15.0,22.0,-999,-99.99,,,-99.99,,2013-01-29 10:42:00,
2013-01-29 02:52:00,46.0,-99.9,30.34,WNW,296,11.0,16.0,-999,-99.99,,,-99.99,,2013-01-29 10:52:00,
2013-01-29 03:02:00,46.0,-99.9,30.34,NW,306,13.0,20.0,-999,-99.99,,,-99.99,,2013-01-29 11:02:00,
2013-01-29 03:12:00,46.0,-99.9,30.34,WNW,293,12.0,18.0,-999,-99.99,,,-99.99,,2013-01-29 11:12:00,
2013-01-29 03:22:00,46.0,-99.9,30.33,WNW,292,14.0,18.0,-999,-99.99,,,-99.99,,2013-01-29 11:22:00,
2013-01-29 03:32:00,46.0,-99.9,30.34,WNW,287,14.0,18.0,-999,-99.99,,,-99.99,,2013-01-29 11:32:00,
2013-01-29 03:42:00,46.0,-99.9,30.33,WNW,296,14.0,19.0,-999,-99.99,,,-99.99,,2013-01-29 11:42:00,
2013-01-29 03:53:00,46.0,-99.9,30.33,WNW,297,11.0,19.0,-999,-99.99,,,-99.99,,2013-01-29 11:53:00,
2013-01-29 04:03:00,46.0,-99.9,30.34,WNW,291,12.0,19.0,-999,-99.99,,,-99.99,,2013-01-29 12:03:00,
2013-01-29 04:12:00,46.0,-99.9,30.34,NW,305,11.0,21.0,-999,-99.99,,,-99.99,,2013-01-29 12:12:00,
2013-01-29 04:22:00,46.0,-99.9,30.35,WNW,302,13.0,20.0,-999,-99.99,,,-99.99,,2013-01-29 12:22:00,
2013-01-29 04:33:00,46.0,-99.9,30.34,WNW,303,13.0,19.0,-999,-99.99,,,-99.99,,2013-01-29 12:33:00,
2013-01-29 04:43:00,46.0,-99.9,30.34,WNW,294,13.0,21.0,-999,-99.99,,,-99.99,,2013-01-29 12:43:00,
2013-01-29 04:53:00,46.0,-99.9,30.35,WNW,295,12.0,17.0,-999,-99.99,,,-99.99,,2013-01-29 12:53:00,
2013-01-29 05:02:00,46.0,-99.9,30.35,NW,304,12.0,23.0,-999,-99.99,,,-99.99,,2013-01-29 13:02:00,
2013-01-29 05:12:00,46.0,-99.9,30.35,NW,304,14.0,21.0,-999,-99.99,,,-99.99,,2013-01-29 13:12:00,
2013-01-29 05:23:00,46.0,-99.9,30.35,WNW,296,11.0,19.0,-999,-99.99,,,-99.99,,2013-01-29 13:23:00,
2013-01-29 05:32:00,46.0,-99.9,30.36,WNW,297,14.0,21.0,-999,-99.99,,,-99.99,,2013-01-29 13:32:00,
2013-01-29 05:43:00,46.0,-99.9,30.36,NW,321,14.0,19.0,-999,-99.99,,,-99.99,,2013-01-29 13:43:00,
2013-01-29 05:53:00,46.0,-99.9,30.37,WNW,301,14.0,21.0,-999,-99.99,,,-99.99,,2013-01-29 13:53:00,
2013-01-29 06:02:00,46.0,-99.9,30.37,NW,309,11.0,20.0,-999,-99.99,,,-99.99,,2013-01-29 14:02:00,
2013-01-29 06:12:00,46.0,-99.9,30.37,NW,305,12.0,20.0,-999,-99.99,,,-99.99,,2013-01-29 14:12:00,
2013-01-29 06:22:00,46.0,-99.9,30.37,WNW,294,13.0,18.0,-999,-99.99,,,-99.99,,2013-01-29 14:22:00,
2013-01-29 06:33:00,46.0,-99.9,30.37,WNW,299,13.0,20.0,-999,-99.99,,,-99.99,,2013-01-29 14:33:00,
2013-01-29 06:43:00,46.0,-99.9,30.38,NW,304,10.0,19.0,-999,-99.99,,,-99.99,,2013-01-29 14:43:00,
2013-01-29 06:53:00,46.0,-99.9,30.38,NW,312,12.0,17.0,-999,-99.99,,,-99.99,,2013-01-29 14:53:00,
2013-01-29 07:03:00,46.0,-99.9,30.39,WNW,303,11.0,19.0,-999,-99.99,,,-99.99,,2013-01-29 15:03:00,
2013-01-29 07:12:00,46.0,-99.9,30.39,WNW,302,11.0,20.0,-999,-99.99,,,-99.99,,2013-01-29 15:12:00,
2013-01-29 07:22:00,46.0,-99.9,30.39,WNW,295,15.0,19.0,-999,-99.99,,,-99.99,,2013-01-29 15:22:00,
2013-01-29 07:33:00,46.0,-99.9,30.40,WNW,297,15.0,20.0,-999,-99.99,,,-99.99,,2013-01-29 15:33:00,
2013-01-29 07:43:00,46.0,-99.9,30.40,WNW,297,10.0,18.0,-999,-99.99,,,-99.99,,2013-01-29 15:43:00,
2013-01-29 07:53:00,46.0,-99.9,30.40,NW,305,12.0,17.0,-999,-99.99,,,-99.99,,2013-01-29 15:53:00,
2013-01-29 08:03:00,46.0,-99.9,30.40,NW,309,11.0,21.0,-999,-99.99,,,-99.99,,2013-01-29 16:03:00,
2013-01-29 08:13:00,46.0,-99.9,30.40,NW,311,10.0,21.0,-999,-99.99,,,-99.99,,2013-01-29 16:13:00,
2013-01-29 08:23:00,46.0,-99.9,30.40,WNW,298,13.0,18.0,-999,-99.99,,,-99.99,,2013-01-29 16:23:00,
2013-01-29 08:33:00,46.0,-99.9,30.41,WNW,297,13.0,17.0,-999,-99.99,,,-99.99,,2013-01-29 16:33:00,
2013-01-29 08:43:00,46.0,-99.9,30.42,WNW,297,13.0,17.0,-999,-99.99,,,-99.99,,2013-01-29 16:43:00,
2013-01-29 08:53:00,46.0,-99.9,30.42,NW,315,11.0,18.0,-999,-99.99,,,-99.99,,2013-01-29 16:53:00,
2013-01-29 09:03:00,46.0,-99.9,30.42,WNW,299,10.0,13.0,-999,-99.99,,,-99.99,,2013-01-29 17:03:00,
2013-01-29 09:12:00,46.0,-99.9,30.42,NW,306,8.0,15.0,-999,-99.99,,,-99.99,,2013-01-29 17:12:00,
2013-01-29 09:22:00,46.0,-99.9,30.42,NW,317,10.0,16.0,-999,-99.99,,,-99.99,,2013-01-29 17:22:00,
2013-01-29 09:33:00,46.0,-99.9,30.42,WNW,298,10.0,13.0,-999,-99.99,,,-99.99,,2013-01-29 17:33:00,
2013-01-29 09:42:00,46.0,-99.9,30.43,WNW,296,8.0,11.0,-999,-99.99,,,-99.99,,2013-01-29 17:42:00,
2013-01-29 09:53:00,46.0,-99.9,30.43,WNW,299,7.0,11.0,-999,-99.99,,,-99.99,,2013-01-29 17:53:00,
2013-01-29 10:04:00,46.0,-99.9,30.45,NW,309,8.0,13.0,-999,-99.99,,,-99.99,,2013-01-29 18:04:00,
2013-01-29 10:13:00,46.0,-99.9,30.45,NW,304,8.0,11.0,-999,-99.99,,,-99.99,,2013-01-29 18:13:00,
2013-01-29 10:22:00,46.0,-99.9,30.45,NW,311,7.0,13.0,-999,-99.99,,,-99.99,,2013-01-29 18:22:00,
2013-01-29 10:33:00,46.0,-99.9,30.45,WNW,299,5.0,8.0,-999,-99.99,,,-99.99,,2013-01-29 18:33:00,
2013-01-29 10:42:00,46.0,-99.9,30.45,WNW,283,4.0,8.0,-999,-99.99,,,-99.99,,2013-01-29 18:42:00,
2013-01-29 10:52:00,46.0,-99.9,30.45,West,271,10.0,13.0,-999,-99.99,,,-99.99,,2013-01-29 18:52:00,
2013-01-29 11:03:00,46.0,-99.9,30.46,West,270,10.0,15.0,-999,-99.99,,,-99.99,,2013-01-29 19:03:00,
2013-01-29 11:12:00,46.0,-99.9,30.47,West,270,9.0,14.0,-999,-99.99,,,-99.99,,2013-01-29 19:12:00,
2013-01-29 11:23:00,46.0,-99.9,30.47,WNW,295,4.0,8.0,-999,-99.99,,,-99.99,,2013-01-29 19:23:00,
2013-01-29 11:33:00,46.0,-99.9,30.48,West,279,5.0,9.0,-999,-99.99,,,-99.99,,2013-01-29 19:33:00,
2013-01-29 11:42:00,46.0,-99.9,30.48,West,279,6.0,11.0,-999,-99.99,,,-99.99,,2013-01-29 19:42:00,
2013-01-29 11:52:00,46.0,-99.9,30.48,WNW,289,13.0,17.0,-999,-99.99,,,-99.99,,2013-01-29 19:52:00,
2013-01-29 12:03:00,45.0,-99.9,30.48,NW,307,6.0,11.0,-999,-99.99,,,-99.99,,2013-01-29 20:03:00,
2013-01-29 12:13:00,45.0,-99.9,30.48,NW,312,4.0,9.0,-999,-99.99,,,-99.99,,2013-01-29 20:13:00,
2013-01-29 12:23:00,46.0,-99.9,30.48,WNW,298,5.0,8.0,-999,-99.99,,,-99.99,,2013-01-29 20:23:00,
2013-01-29 12:33:00,46.0,-99.9,30.48,WNW,299,6.0,10.0,-999,-99.99,,,-99.99,,2013-01-29 20:33:00,
2013-01-29 12:43:00,46.0,-99.9,30.48,NW,306,5.0,9.0,-999,-99.99,,,-99.99,,2013-01-29 20:43:00,
2013-01-29 12:54:00,46.0,-99.9,30.49,WNW,303,6.0,9.0,-999,-99.99,,,-99.99,,2013-01-29 20:54:00,
2013-01-29 13:03:00,46.0,-99.9,30.49,WNW,287,9.0,13.0,-999,-99.99,,,-99.99,,2013-01-29 21:03:00,
2013-01-29 13:13:00,46.0,-99.9,30.49,WNW,286,9.0,14.0,-999,-99.99,,,-99.99,,2013-01-29 21:13:00,
2013-01-29 13:22:00,46.0,-99.9,30.49,West,273,9.0,11.0,-999,-99.99,,,-99.99,,2013-01-29 21:22:00,
2013-01-29 13:34:00,46.0,-99.9,30.49,WNW,285,7.0,13.0,-999,-99.99,,,-99.99,,2013-01-29 21:34:00,
2013-01-29 13:42:00,47.0,-99.9,30.49,WNW,282,6.0,8.0,-999,-99.99,,,-99.99,,2013-01-29 21:42:00,
2013-01-29 13:53:00,46.0,-99.9,30.48,WNW,297,7.0,10.0,-999,-99.99,,,-99.99,,2013-01-29 21:53:00,
2013-01-29 14:03:00,46.0,-99.9,30.48,West,271,9.0,12.0,-999,-99.99,,,-99.99,,2013-01-29 22:03:00,
2013-01-29 14:12:00,46.0,-99.9,30.49,West,274,9.0,12.0,-999,-99.99,,,-99.99,,2013-01-29 22:12:00,
2013-01-29 14:22:00,46.0,-99.9,30.49,West,273,7.0,9.0,-999,-99.99,,,-99.99,,2013-01-29 22:22:00,
2013-01-29 14:33:00,46.0,-99.9,30.49,West,274,6.0,9.0,-999,-99.99,,,-99.99,,2013-01-29 22:33:00,
2013-01-29 14:43:00,46.0,-99.9,30.49,West,270,9.0,13.0,-999,-99.99,,,-99.99,,2013-01-29 22:43:00,
2013-01-29 14:53:00,46.0,-99.9,30.48,West,275,7.0,13.0,-999,-99.99,,,-99.99,,2013-01-29 22:53:00,
2013-01-29 15:03:00,46.0,-99.9,30.49,West,278,7.0,8.0,-999,-99.99,,,-99.99,,2013-01-29 23:03:00,
2013-01-29 15:12:00,47.0,-99.9,30.49,West,270,7.0,9.0,-999,-99.99,,,-99.99,,2013-01-29 23:12:00,
2013-01-29 15:23:00,47.0,-99.9,30.50,West,274,9.0,12.0,-999,-99.99,,,-99.99,,2013-01-29 23:23:00,
2013-01-29 15:33:00,46.0,-99.9,30.50,WNW,289,9.0,13.0,-999,-99.99,,,-99.99,,2013-01-29 23:33:00,
2013-01-29 15:42:00,46.0,-99.9,30.50,WNW,295,8.0,13.0,-999,-99.99,,,-99.99,,2013-01-29 23:42:00,
2013-01-29 15:53:00,46.0,-99.9,30.50,West,275,8.0,11.0,-999,-99.99,,,-99.99,,2013-01-29 23:53:00,
2013-01-29 16:03:00,46.0,-99.9,30.50,West,263,10.0,13.0,-999,-99.99,,,-99.99,,2013-01-30 00:03:00,
2013-01-29 16:12:00,46.0,-99.9,30.50,West,277,10.0,15.0,-999,-99.99,,,-99.99,,2013-01-30 00:12:00,
2013-01-29 16:22:00,45.0,-99.9,30.50,West,272,9.0,11.0,-999,-99.99,,,-99.99,,2013-01-30 00:22:00,
2013-01-29 16:33:00,46.0,-99.9,30.51,West,272,6.0,8.0,-999,-99.99,,,-99.99,,2013-01-30 00:33:00,
2013-01-29 16:43:00,46.0,-99.9,30.51,WSW,251,6.0,9.0,-999,-99.99,,,-99.99,,2013-01-30 00:43:00,
2013-01-29 16:53:00,46.0,-99.9,30.51,WSW,249,5.0,8.0,-999,-99.99,,,-99.99,,2013-01-30 00:53:00,
2013-01-29 17:02:00,46.0,-99.9,30.52,SW,235,6.0,8.0,-999,-99.99,,,-99.99,,2013-01-30 01:02:00,
2013-01-29 17:12:00,46.0,-99.9,30.52,SW,236,4.0,7.0,-999,-99.99,,,-99.99,,2013-01-30 01:12:00,
2013-01-29 17:23:00,46.0,-99.9,30.51,SW,233,6.0,8.0,-999,-99.99,,,-99.99,,2013-01-30 01:23:00,
2013-01-29 17:32:00,46.0,-99.9,30.52,SW,228,5.0,8.0,-999,-99.99,,,-99.99,,2013-01-30 01:32:00,
2013-01-29 17:43:00,46.0,-99.9,30.52,SW,228,5.0,7.0,-999,-99.99,,,-99.99,,2013-01-30 01:43:00,
2013-01-29 17:52:00,46.0,-99.9,30.52,SW,227,5.0,8.0,-999,-99.99,,,-99.99,,2013-01-30 01:52:00,
2013-01-29 18:03:00,46.0,-99.9,30.52,SW,220,4.0,9.0,-999,-99.99,,,-99.99,,2013-01-30 02:03:00,
2013-01-29 18:12:00,46.0,-99.9,30.52,SW,221,4.0,6.0,-999,-99.99,,,-99.99,,2013-01-30 02:12:00,
2013-01-29 18:22:00,46.0,-99.9,30.52,SW,214,5.0,7.0,-999,-99.99,,,-99.99,,2013-01-30 02:22:00,
2013-01-29 18:33:00,47.0,-99.9,30.51,West,269,6.0,8.0,-999,-99.99,,,-99.99,,2013-01-30 02:33:00,
2013-01-29 18:42:00,47.0,-99.9,30.52,West,275,6.0,8.0,-999,-99.99,,,-99.99,,2013-01-30 02:42:00,
2013-01-29 18:53:00,46.0,-99.9,30.52,West,269,9.0,12.0,-999,-99.99,,,-99.99,,2013-01-30 02:53:00,
2013-01-29 19:03:00,46.0,-99.9,30.52,WNW,295,4.0,6.0,-999,-99.99,,,-99.99,,2013-01-30 03:03:00,
2013-01-29 19:12:00,46.0,-99.9,30.52,WNW,293,4.0,5.0,-999,-99.99,,,-99.99,,2013-01-30 03:12:00,
2013-01-29 19:22:00,46.0,-99.9,30.53,WNW,298,3.0,6.0,-999,-99.99,,,-99.99,,2013-01-30 03:22:00,
2013-01-29 19:32:00,46.0,-99.9,30.53,WNW,294,4.0,7.0,-999,-99.99,,,-99.99,,2013-01-30 03:32:00,
2013-01-29 19:42:00,46.0,-99.9,30.53,West,275,4.0,6.0,-999,-99.99,,,-99.99,,2013-01-30 03:42:00,
2013-01-29 19:52:00,46.0,-99.9,30.53,West,268,5.0,6.0,-999,-99.99,,,-99.99,,2013-01-30 03:52:00,
2013-01-29 20:02:00,46.0,-99.9,30.53,West,268,5.0,7.0,-999,-99.99,,,-99.99,,2013-01-30 04:02:00,
2013-01-29 20:12:00,46.0,-99.9,30.53,West,270,5.0,7.0,-999,-99.99,,,-99.99,,2013-01-30 04:12:00,
2013-01-29 20:22:00,46.0,-99.9,30.53,WSW,257,3.0,7.0,-999,-99.99,,,-99.99,,2013-01-30 04:22:00,
2013-01-29 20:32:00,46.0,-99.9,30.53,West,273,5.0,8.0,-999,-99.99,,,-99.99,,2013-01-30 04:32:00,
2013-01-29 20:42:00,46.0,-99.9,30.53,West,280,5.0,6.0,-999,-99.99,,,-99.99,,2013-01-30 04:42:00,
2013-01-29 20:52:00,46.0,-99.9,30.53,West,276,5.0,6.0,-999,-99.99,,,-99.99,,2013-01-30 04:52:00,
2013-01-29 21:04:00,46.0,-99.9,30.53,West,276,4.0,5.0,-999,-99.99,,,-99.99,,2013-01-30 05:04:00,
2013-01-29 21:12:00,46.0,-99.9,30.53,WSW,256,2.0,5.0,-999,-99.99,,,-99.99,,2013-01-30 05:12:00,
2013-01-29 21:22:00,46.0,-99.9,30.53,SSW,212,1.0,2.0,-999,-99.99,,,-99.99,,2013-01-30 05:22:00,
2013-01-29 21:33:00,46.0,-99.9,30.52,SSW,208,3.0,3.0,-999,-99.99,,,-99.99,,2013-01-30 05:33:00,
2013-01-29 21:43:00,45.0,-99.9,30.52,South,175,2.0,3.0,-999,-99.99,,,-99.99,,2013-01-30 05:43:00,
2013-01-29 21:52:00,45.0,-99.9,30.52,SSE,168,2.0,3.0,-999,-99.99,,,-99.99,,2013-01-30 05:52:00,
2013-01-29 22:02:00,45.0,-99.9,30.52,ESE,110,2.0,3.0,-999,-99.99,,,-99.99,,2013-01-30 06:02:00,
2013-01-29 22:12:00,45.0,-99.9,30.52,ESE,110,2.0,3.0,-999,-99.99,,,-99.99,,2013-01-30 06:12:00,
2013-01-29 22:22:00,45.0,-99.9,30.52,ESE,102,1.0,4.0,-999,-99.99,,,-99.99,,2013-01-30 06:22:00,
2013-01-29 22:32:00,45.0,-99.9,30.52,ENE,77,1.0,3.0,-999,-99.99,,,-99.99,,2013-01-30 06:32:00,
2013-01-29 22:42:00,45.0,-99.9,30.52,East,96,2.0,4.0,-999,-99.99,,,-99.99,,2013-01-30 06:42:00,
2013-01-29 22:52:00,45.0,-99.9,30.52,ESE,107,3.0,4.0,-999,-99.99,,,-99.99,,2013-01-30 06:52:00,
2013-01-29 23:02:00,45.0,-99.9,30.51,SE,140,3.0,5.0,-999,-99.99,,,-99.99,,2013-01-30 07:02:00,
2013-01-29 23:12:00,45.0,-99.9,30.51,SSW,196,3.0,4.0,-999,-99.99,,,-99.99,,2013-01-30 07:12:00,
2013-01-29 23:22:00,45.0,-99.9,30.51,South,177,4.0,5.0,-999,-99.99,,,-99.99,,2013-01-30 07:22:00,
2013-01-29 23:32:00,45.0,-99.9,30.51,South,182,4.0,6.0,-999,-99.99,,,-99.99,,2013-01-30 07:32:00,
2013-01-29 23:42:00,45.0,-99.9,30.51,SSW,200,6.0,8.0,-999,-99.99,,,-99.99,,2013-01-30 07:42:00,
2013-01-29 23:52:00,45.0,-99.9,30.51,SSW,207,3.0,7.0,-999,-99.99,,,-99.99,,2013-01-30 07:52:00,